Noatak, AK

11:06 AM AKDT on March 30, 2017 (GMT -0800)
Noatak

Weather History for PAWN - June, 2014

Change the Weather History Date:

Tuesday, June 10, 2014

  Actual Average Record
Temperature  
Mean Temperature 42 °F -  
Max Temperature 53 °F 58 °F 84 °F (2007)
Min Temperature 32 °F 38 °F 30 °F (2001)
Degree Days  
Heating Degree Days 22    
Moisture  
Dew Point 33 °F    
Average Humidity 69    
Maximum Humidity 93    
Minimum Humidity 44    
Precipitation  
Precipitation 0.00 in - - ()
Sea Level Pressure  
Sea Level Pressure 29.97 in    
Wind  
Wind Speed 6 mph (SW)    
Max Wind Speed 12 mph    
Max Gust Speed -    
Visibility 9 miles    
Events      
Averages and records for this station are not official NWS values.
T = Trace of Precipitation, MM = Missing Value Source: NWS Daily Summary

Daily Weather History Graph

Daily Weather History Graph

Search for Another Location

Airport or City:

Trip Planner

Search our weather history database for the weather conditions in past years. The results will help you decide how hot, cold, wet, or windy it might be!

Date:

Astronomy

Jun. 10, 2014 Rise Set
Actual Time 3:23 AM AKDT 2:19 AM AKDT
Civil Twilight Sun does not rise Sun does not rise
Nautical Twilight Sun does not rise Sun does not rise
Astronomical Twilight Sun does not rise Sun does not rise
Moon 10:14 PM AKDT (6/10) 3:45 AM AKDT (6/10)
Length of Visible Light 24h 00m
Length of Day
22h 55m
Waxing Gibbous, 93% of the Moon is Illuminated
Jun 10
Waxing Gibbous
Jun 12
Full
Jun 19
Last Quarter
Jun 27
New
Jul 5
First Quarter

Hourly Weather History & Observations

Time (AKDT) Temp. Windchill Dew Point Humidity Pressure Visibility Wind Dir Wind Speed Gust Speed Precip Events Conditions
12:16 AM 39.2 °F 35.9 °F 35.6 °F 87% 29.92 in 10.0 mi WSW 4.6 mph - N/A   Overcast
12:36 AM 39.2 °F 35.0 °F 35.6 °F 87% 29.93 in 10.0 mi SW 5.8 mph - N/A   Overcast
12:56 AM 39.2 °F 34.2 °F 35.6 °F 87% 29.93 in 10.0 mi WSW 6.9 mph - N/A   Overcast
1:16 AM 37.4 °F 32.8 °F 35.6 °F 93% 29.94 in 10.0 mi WSW 5.8 mph - N/A   Overcast
1:36 AM 39.2 °F 37.0 °F 35.6 °F 87% 29.94 in 10.0 mi WSW 3.5 mph - N/A   Overcast
1:56 AM 37.4 °F 34.9 °F 35.6 °F 93% 29.94 in 10.0 mi SW 3.5 mph - N/A   Overcast
2:16 AM 37.4 °F 33.8 °F 35.6 °F 93% 29.94 in 10.0 mi SW 4.6 mph - N/A   Overcast
2:36 AM 37.4 °F 34.9 °F 33.8 °F 87% 29.94 in 10.0 mi SW 3.5 mph - N/A   Overcast
2:56 AM 37.4 °F 34.9 °F 33.8 °F 87% 29.94 in 10.0 mi WSW 3.5 mph - N/A   Overcast
3:16 AM 37.4 °F 34.9 °F 33.8 °F 87% 29.94 in 10.0 mi West 3.5 mph - N/A   Overcast
3:36 AM 35.6 °F 32.8 °F 33.8 °F 93% 29.95 in 10.0 mi West 3.5 mph - N/A   Overcast
3:56 AM 35.6 °F 32.8 °F 32.0 °F 87% 29.95 in 10.0 mi WSW 3.5 mph - N/A   Overcast
4:16 AM 33.8 °F 29.6 °F 32.0 °F 93% 29.95 in 10.0 mi SW 4.6 mph - N/A   Overcast
4:36 AM 33.8 °F 30.8 °F 30.2 °F 87% 29.95 in 10.0 mi SSW 3.5 mph - N/A   Overcast
4:56 AM 33.8 °F 27.7 °F 30.2 °F 87% 29.95 in 10.0 mi SSW 6.9 mph - N/A   Overcast
5:16 AM 33.8 °F 27.0 °F 30.2 °F 87% 29.95 in 0.2 mi South 8.1 mph - N/A   Overcast
5:56 AM 32.0 °F 27.5 °F 30.2 °F 93% 29.95 in 0.8 mi SW 4.6 mph - N/A   Overcast
6:16 AM 32.0 °F 27.5 °F 30.2 °F 93% 29.96 in 2.5 mi SSW 4.6 mph - N/A   Overcast
6:36 AM 33.8 °F 28.6 °F 30.2 °F 87% 29.96 in 5.0 mi SSW 5.8 mph - N/A   Overcast
6:56 AM 33.8 °F 29.6 °F 30.2 °F 87% 29.96 in 0.8 mi SW 4.6 mph - N/A   Overcast
7:16 AM 33.8 °F 28.6 °F 30.2 °F 87% 29.97 in 10.0 mi SSW 5.8 mph - N/A   Overcast
7:36 AM 33.8 °F 28.6 °F 30.2 °F 87% 29.96 in 10.0 mi SSW 5.8 mph - N/A   Overcast
7:56 AM 33.8 °F 28.6 °F 30.2 °F 87% 29.97 in 4.0 mi SW 5.8 mph - N/A   Overcast
8:16 AM 33.8 °F 28.6 °F 30.2 °F 87% 29.97 in 10.0 mi WSW 5.8 mph - N/A   Overcast
8:36 AM 35.6 °F 32.8 °F 30.2 °F 81% 29.97 in 10.0 mi WSW 3.5 mph - N/A   Overcast
9:16 AM 35.6 °F 31.7 °F 32.0 °F 87% 29.97 in 10.0 mi SSE 4.6 mph - N/A   Overcast
9:36 AM 37.4 °F - 32.0 °F 81% 29.97 in 10.0 mi Calm Calm - N/A   Overcast
9:56 AM 37.4 °F - 33.8 °F 87% 29.97 in 10.0 mi Calm Calm - N/A   Overcast
10:16 AM 39.2 °F 35.0 °F 33.8 °F 81% 29.98 in 10.0 mi SSE 5.8 mph - N/A   Overcast
10:36 AM 39.2 °F 34.2 °F 33.8 °F 81% 29.98 in 10.0 mi SSE 6.9 mph - N/A   Overcast
10:56 AM 41.0 °F 38.0 °F 33.8 °F 76% 29.98 in 10.0 mi SSE 4.6 mph - N/A   Overcast
11:16 AM 41.0 °F 36.4 °F 33.8 °F 76% 29.98 in 10.0 mi SSE 6.9 mph - N/A   Overcast
11:36 AM 42.8 °F 38.6 °F 35.6 °F 76% 29.99 in 10.0 mi South 6.9 mph - N/A   Overcast
11:56 AM 44.6 °F 40.7 °F 37.4 °F 76% 29.98 in 10.0 mi South 6.9 mph - N/A   Overcast
12:16 PM 44.6 °F 41.4 °F 35.6 °F 71% 29.98 in 10.0 mi SSE 5.8 mph - N/A   Overcast
12:36 PM 46.4 °F 42.9 °F 37.4 °F 71% 29.98 in 10.0 mi South 6.9 mph - N/A   Overcast
1:16 PM 48.2 °F - 35.6 °F 62% 29.98 in 10.0 mi South 4.6 mph - N/A   Overcast
1:36 PM 48.2 °F - 37.4 °F 66% 29.98 in 10.0 mi WSW 8.1 mph - N/A   Overcast
1:56 PM 48.2 °F - 37.4 °F 66% 29.98 in 10.0 mi SW 6.9 mph - N/A   Overcast
2:16 PM 48.2 °F - 37.4 °F 66% 29.98 in 10.0 mi SW 6.9 mph - N/A   Overcast
2:36 PM 48.2 °F - 35.6 °F 62% 29.98 in 10.0 mi Calm Calm - N/A   Overcast
2:56 PM 50.0 °F - 35.6 °F 58% 29.98 in 10.0 mi WSW 4.6 mph - N/A   Overcast
3:16 PM 51.8 °F - 35.6 °F 54% 29.98 in 10.0 mi SW 9.2 mph - N/A   Overcast
3:36 PM 51.8 °F - 35.6 °F 54% 29.98 in 10.0 mi South 3.5 mph - N/A   Overcast
3:56 PM 51.8 °F - 35.6 °F 54% 29.98 in 10.0 mi SW 9.2 mph - N/A   Overcast
4:16 PM 51.8 °F - 33.8 °F 50% 29.98 in 10.0 mi SSW 5.8 mph - N/A   Overcast
4:36 PM 51.8 °F - 33.8 °F 50% 29.98 in 10.0 mi SW 11.5 mph - N/A   Overcast
4:56 PM 51.8 °F - 32.0 °F 47% 29.98 in 10.0 mi WSW 9.2 mph - N/A   Overcast
5:16 PM 51.8 °F - 32.0 °F 47% 29.98 in 10.0 mi WSW 9.2 mph - N/A   Overcast
5:36 PM 51.8 °F - 30.2 °F 44% 29.98 in 10.0 mi WSW 6.9 mph - N/A   Overcast
5:56 PM 53.6 °F - 33.8 °F 47% 29.98 in 10.0 mi WSW 8.1 mph - N/A   Overcast
6:16 PM 51.8 °F - 30.2 °F 44% 29.97 in 10.0 mi SW 4.6 mph - N/A   Overcast
6:36 PM 51.8 °F - 30.2 °F 44% 29.97 in 10.0 mi West 9.2 mph - N/A   Overcast
6:56 PM 51.8 °F - 30.2 °F 44% 29.98 in 10.0 mi SW 6.9 mph - N/A   Overcast
7:16 PM 51.8 °F - 30.2 °F 44% 29.97 in 10.0 mi SW 8.1 mph - N/A   Overcast
7:36 PM 51.8 °F - 30.2 °F 44% 29.97 in 10.0 mi SW 5.8 mph - N/A   Overcast
7:56 PM 51.8 °F - 30.2 °F 44% 29.98 in 10.0 mi WSW 9.2 mph - N/A   Overcast
8:16 PM 51.8 °F - 30.2 °F 44% 29.98 in 10.0 mi SW 5.8 mph - N/A   Overcast
8:36 PM 51.8 °F - 30.2 °F 44% 29.98 in 10.0 mi WSW 9.2 mph - N/A   Overcast
8:56 PM 51.8 °F - 30.2 °F 44% 29.98 in 10.0 mi WSW 5.8 mph - N/A   Overcast
9:16 PM 51.8 °F - 32.0 °F 47% 29.98 in 10.0 mi SW 8.1 mph - N/A   Overcast
9:36 PM 50.0 °F - 30.2 °F 47% 29.99 in 10.0 mi SW 8.1 mph - N/A   Overcast
9:56 PM 50.0 °F - 30.2 °F 47% 29.99 in 10.0 mi SW 8.1 mph - N/A   Overcast
10:16 PM 48.2 °F - 30.2 °F 50% 29.99 in 10.0 mi WSW 9.2 mph - N/A   Overcast
10:36 PM 48.2 °F - 30.2 °F 50% 29.99 in 10.0 mi WSW 8.1 mph - N/A   Overcast
10:56 PM 48.2 °F - 30.2 °F 50% 29.99 in 10.0 mi WSW 9.2 mph - N/A   Overcast
11:16 PM 46.4 °F 42.4 °F 33.8 °F 62% 29.99 in 10.0 mi West 8.1 mph - N/A   Overcast
11:36 PM 44.6 °F 40.2 °F 33.8 °F 66% 29.99 in 10.0 mi West 8.1 mph - N/A   Overcast
11:56 PM 44.6 °F 41.4 °F 33.8 °F 66% 29.99 in 10.0 mi West 5.8 mph - N/A   Overcast